Regional Weather Roundup
Issued by NWS

Home | Current Version | Previous Version | Text Only | Print | Product List | Glossary Off
Versions: 1 2 3 4 5 6 7 8 9 10 11 12 13 14 15 16 17 18 19 20 21 22 23 24 25 26 27 28 29 30 31 32 33 34 35 36 37 38 39 40 41 42 43 44 45 46 47 48 49 50

000
ASUS45 KTFX 012110
RWRMT
MONTANA REGIONAL WEATHER ROUNDUP
NATIONAL WEATHER SERVICE GREAT FALLS MT
300 PM MDT SAT AUG 01 2015

NOTE: "FAIR" INDICATES FEW OR NO CLOUDS BELOW 12000 FEET WITH NO
SIGNIFICANT WEATHER AND/OR OBSTRUCTIONS TO VISIBILITY.

MTZ001>007-043-012200-
WEST OF THE DIVIDE

CITY           SKY/WX    TMP DP  RH WIND       PRES   REMARKS
KALISPELL      CLEAR     95  33  11 S15       29.91F HX  90
MISSOULA       SUNNY     92  35  13 SW6       29.97F
BUTTE          SUNNY     86  31  13 W12G17    30.15F
MULLAN PASS    SUNNY     82  30  15 MISG      30.21S
DEER LODGE       N/A     90  34  13 NW10      30.10F
EUREKA           N/A     95  28   9 SW6       29.91F
HAMILTON         N/A     93  43  17 SE5       29.99F
LIBBY            N/A     97  28   9 W8G20     29.91F HX  91
PLAINS           N/A     98  43  15 SW16      29.93F HX  94
RONAN            N/A     95  34  11 E6        30.01F HX  90
$$

MTZ008-052>055-012200-
SOUTHWEST MONTANA

CITY           SKY/WX    TMP DP  RH WIND       PRES   REMARKS
BOZEMAN        SUNNY     91  32  12 VRB3      30.07F
DILLON         SUNNY     88  42  20 N7        30.12F
W YELLOWSTONE  PTSUNNY   81  27  13 CALM      30.26F
THREE FORKS      N/A     94  26   9 S8        30.03F
TWIN BRIDGES     N/A     90  34  13 SE7       30.08F
$$

MTZ009-010-012-014-046-048-049-054-012200-
EAST SLOPES AND CENTRAL MONTANA

CITY           SKY/WX    TMP DP  RH WIND       PRES   REMARKS
CUT BANK       SUNNY     91  25   9 W21       29.96F
GREAT FALLS    SUNNY     96  27   8 NW9       29.95F HX  90
MALMSTROM AFB  SUNNY     94  28   9 NW16G23   29.94F
HELENA         SUNNY     95  36  12 NW16      30.00F HX  90
CONRAD           N/A     95  30  10 NW10      29.98F
$$

MTZ011-013-016-021-045-047-050-051-012200-
NORTH CENTRAL MONTANA

CITY           SKY/WX    TMP DP  RH WIND       PRES   REMARKS
HAVRE          SUNNY     96  35  11 N9        29.85S HX  91
LEWISTOWN      SUNNY     93  29  10 NW13G26   30.00F
CHINOOK          N/A     95  39  14 W5        29.84F HX  91
FORT BENTON      N/A     97  21   6 W17G24    29.89S HX  90
$$

MTZ017>020-022>027-061-062-012200-
NORTHEAST MONTANA

CITY           SKY/WX    TMP DP  RH WIND       PRES   REMARKS
GLASGOW        SUNNY     96  34  11 W15G26    29.82F HX  91
JORDAN           N/A     98  32  10 W21G28    29.87F HX  92
SIDNEY         SUNNY    N/A N/A N/A S14G21    29.77F
WOLF POINT     SUNNY    100  39  12 NW20G26   29.79S HX  95
MALTA            N/A     96  44  16 SW10      29.82S HX  92
PLENTYWOOD       N/A     93  43  17 W20G26    29.76F
POPLAR           N/A     95  45  17 W15G21    29.78S HX  91
SCOBEY           N/A     93  43  17 W17       29.81S
$$

MTZ028>42-056>058-012200-
SOUTHCENTRAL AND SOUTHEAST MONTANA

CITY           SKY/WX    TMP DP  RH WIND       PRES   REMARKS
BAKER          SUNNY     97  33  10 NW10G26   29.90F HX  91
BILLINGS       PTSUNNY   96  23   7 W13G21    29.98F HX  90
LIVINGSTON     SUNNY     94  30  10 W20G30    30.07F
MILES CITY     SUNNY    100  32   9 NW9G21    29.86F HX  94
EKALAKA          N/A     94  29  10 W17       29.94F
FORSYTH          N/A     97  30   9 W17       29.87F HX  91
LAUREL           N/A     97  34  11 W16       29.97F HX  91
ROUNDUP          N/A     95  27   9 W17       29.88F
$$

REGIONAL REPORTS...DAKOTAS

CITY           SKY/WX    TMP DP  RH WIND       PRES   REMARKS
WILLISTON      SUNNY     95  44  17 S8        29.78F HX  91
MINOT          SUNNY     89  45  21 S6        29.80F
DICKINSON      SUNNY     92  38  15 VRB3      29.86F
CROSBY         FAIR      91  46  21 S8        29.78F
BISMARCK       SUNNY     89  59  36 VRB7      29.82F
GRAND FORKS    MOSUNNY   86  59  39 SW7       29.79F
FARGO          SUNNY     87  57  35 S10G18    29.80F
BUFFALO SD       N/A     95  31  10 NW15G25   29.87F
RAPID CITY     SUNNY     91  57  31 VRB6      29.97F
$$

REGIONAL REPORTS...WYOMING/IDAHO/WASHINGTON

CITY           SKY/WX    TMP DP  RH WIND       PRES   REMARKS
GILLETTE       SUNNY     93  25   8 MISG      30.04F
SHERIDAN       SUNNY     97  27   8 N10       30.01F HX  91
BUFFALO WY     SUNNY     91  29  11 NW6       30.10F
CODY           SUNNY     88  34  14 NE15      30.10F
YELLOWSTONE LA   N/A     75  37  25 MISG      30.38F
IDAHO FALLS    SUNNY     92  30  11 W7        30.13F
SALMON         SUNNY     88  41  19 W5        30.02F
BOISE          SUNNY    100  36  11 NW7       29.97F HX  94
SPOKANE        PTSUNNY   94  26   9 SW8       29.94F
$$

REGIONAL REPORTS...ALBERTA

CITY           SKY/WX    TMP DP  RH WIND       PRES   REMARKS
EDMONTON       MOSUNNY   72  50  46 NW5       29.98S
CALGARY        MOSUNNY   79  54  41 NE13G24   29.99R
LETHBRIDGE     MOSUNNY   95  37  13 W20G28    29.88F HX  90
MEDICINE HAT   SUNNY     91  41  17 NE6       29.86S
CARDSTON         N/A     90  28  11 W10G18      N/A
MILK RIVER       N/A     93  34  12 W18G24      N/A
$$

REGIONAL REPORTS...SASKATCHEWAN

CITY           SKY/WX    TMP DP  RH WIND       PRES   REMARKS
SWIFT CURRENT  SUNNY     81  54  39 NE21G26   29.90R
REGINA         MOSUNNY   84  59  42 N16       29.81R
SASKATOON      PTSUNNY   70  55  60 CALM      29.89F
CYPRESS HILLS    N/A     79  45  29 N8          N/A
VAL MARIE        N/A     88  46  23 N22G28      N/A
ROCKGLEN         N/A     88  46  23 W18G29      N/A
ASSINIBOIA       N/A     72  54  53 NW12G22     N/A
$$


USA.gov is the U.S. government's official web portal to all federal, state and local government web resources and services.